Home > Weather > Sfax > Past weeks

Flag for Tunisia Weather for the Past 2 Weeks in Sfax, Tunisia

Now
64 °F

Scattered clouds.


Feels Like: 64 °F
Forecast: 51 / 74 °F
Wind: 13 mph from Southwest

Location: Sfax El-Maou

Current Time: Feb 9, 2016 at 1:24:57 PM

Latest Report: Feb 9, 2016 at 12:00 PM


Visibility: N/A

Pressure: 30.30 "Hg

Humidity: 43%

Dew point: 41 °F

Location of SfaxLocation

Historic Weather in Sfax — Graph

°F

Sfax Temperature Yesterday

Maximum temperature yesterday: 66 °F (at 4:00 PM)
Minimum temperature yesterday: 48 °F (at 5:00 AM)
Average temperature yesterday: 56 °F

High & Low Weather Summary for the Past Weeks

 TemperatureHumidityPressure
High73 °F (Feb 3, 4:00 PM)100% (Jan 27, 11:00 PM)30.57 "Hg (Jan 27, 11:00 PM)
Low39 °F (Jan 26, 7:00 AM)30% (Feb 4, 4:00 PM)30.04 "Hg (Feb 7, 5:00 PM)
Average55 °F69%30.36 "Hg
* Reported Jan 25 12:00 Noon — Feb 9 12:00 Noon, Sfax, Weather by CustomWeather, © 2016

Note: Actual official high and low records may vary slightly from our data, if they occured in-between our weather recording intervals... More about our weather records

Advertising

Sfax Weather History for the Previous 24 Hours

 ConditionsComfort  
Time TempWeatherWind HumidityBarometerVisibility
12:00 PM
Tue, Feb 9
64 °FScattered clouds.13 mph43%30.30 "HgN/A
11:00 AM59 °FPassing clouds.7 mph51%30.33 "HgN/A
10:00 AM59 °FSunny.5 mph55%30.33 "Hg10 mi
9:00 AM54 °FSunny.No wind63%30.33 "Hg10 mi
8:00 AM45 °FPassing clouds.3 mph81%30.33 "HgN/A
7:00 AM43 °FPassing clouds.3 mph87%30.33 "HgN/A
6:00 AM45 °FPassing clouds.2 mph81%30.33 "HgN/A
5:00 AM46 °FPassing clouds.5 mph76%30.33 "HgN/A
4:00 AM45 °FPassing clouds.No wind81%30.33 "HgN/A
3:00 AM46 °FPassing clouds.2 mph76%30.33 "HgN/A
2:00 AM46 °FPassing clouds.3 mph82%30.36 "HgN/A
1:00 AM48 °FPassing clouds.5 mph76%30.36 "HgN/A
12:00 AM50 °FPassing clouds.6 mph71%30.36 "HgN/A
11:00 PM
Mon, Feb 8
52 °FPassing clouds.5 mph72%30.36 "HgN/A
10:00 PM50 °FPassing clouds.5 mph76%30.33 "HgN/A
8:00 PM57 °FPassing clouds.2 mph55%30.30 "HgN/A
7:00 PM61 °FPassing clouds.7 mph45%30.27 "HgN/A
6:00 PM63 °FPassing clouds.14 mph42%30.27 "HgN/A
5:00 PM64 °FPassing clouds.16 mph37%30.24 "HgN/A
4:00 PM66 °FPassing clouds.18 mph35%30.21 "HgN/A
3:00 PM64 °FPassing clouds.17 mph40%30.21 "HgN/A
2:00 PM64 °FPassing clouds.20 mph43%30.21 "HgN/A
1:00 PM63 °FPassing clouds.17 mph49%30.21 "HgN/A
Weather by CustomWeather, © 2016

See weather overviewHow to use our weather pages